EW5822 Weather Reports


Display with metric or nautical units.
time (UTC)temp
F
wind
direction
speed
MPH
gust
MPH
rain 1hr
in
rain 24hr
in
rain mn
in
humidity
%
barometer
mb
20260509044715 56 160 7.0 8.0 0.00 0.00 0.00 69 1007.4
20260509043603 57 161 7.0 9.0 0.00 0.00 0.00 68 1007.4
20260509042703 58 160 6.0 9.0 0.00 0.00 0.00 68 1007.4
20260509041803 58 162 7.0 10.0 0.00 0.00 0.00 66 1007.4
20260509041115 58 159 7.0 10.0 0.00 0.00 0.00 66 1007.4
20260509040003 60 157 7.0 10.0 0.00 0.00 0.00 63 1007.4
20260509035403 61 156 8.0 10.0 0.00 0.00 0.00 62 1007.4
20260509034503 62 160 9.0 12.0 0.00 0.00 0.00 62 1007.3
20260509033813 62 160 10.0 15.0 0.00 0.00 0.00 62 1007.4
20260509032916 60 157 11.0 15.0 0.00 0.00 0.00 65 1007.2
20260509032013 58 149 10.0 13.0 0.00 0.00 0.00 69 1007.1
20260509030903 59 147 8.0 11.0 0.00 0.00 0.00 63 1007.1
20260509030003 60 157 5.0 8.0 0.00 0.00 0.00 63 1007.2
20260509025403 60 150 5.0 8.0 0.00 0.00 0.00 64 1007.1
20260509024717 60 139 5.0 7.0 0.00 0.00 0.00 64 1006.9
20260509023603 59 135 6.0 8.0 0.00 0.00 0.00 65 1006.8
20260509022703 60 129 9.0 11.0 0.00 0.00 0.00 62 1006.7
20260509021803 61 128 10.0 11.0 0.00 0.00 0.00 62 1006.6
20260509020903 61 127 10.0 11.0 0.00 0.00 0.00 61 1006.4
20260509020003 61 128 9.0 11.0 0.00 0.00 0.00 60 1006.3
20260509015615 62 131 8.0 10.0 0.00 0.00 0.00 59 1006.2
20260509014503 63 134 8.0 9.0 0.00 0.00 0.00 57 1006.2
20260509013814 64 134 8.0 10.0 0.00 0.00 0.00 56 1006.1
20260509012703 65 133 8.0 10.0 0.00 0.00 0.00 54 1005.9
20260509012014 66 133 8.0 9.0 0.00 0.00 0.00 53 1005.9
20260509010903 68 134 9.0 11.0 0.00 0.00 0.00 50 1005.9
20260509010004 70 133 9.0 11.0 0.00 0.00 0.00 49 1005.9
20260509005403 70 132 8.0 11.0 0.00 0.00 0.00 47 1005.9
20260509004503 71 146 6.0 8.0 0.00 0.00 0.00 46 1005.9
20260509003815 72 149 6.0 8.0 0.00 0.00 0.00 44 1005.8
20260509002912 73 143 5.0 8.0 0.00 0.00 0.00 42 1005.8
20260509002015 74 160 6.0 9.0 0.00 0.00 0.00 39 1005.8
20260509000903 75 149 6.0 9.0 0.00 0.00 0.00 37 1005.8
20260509000003 75 152 5.0 9.0 0.00 0.00 0.00 36 1005.9
20260508235403 75 129 4.0 7.0 0.00 0.00 0.00 37 1005.9
20260508234503 76 157 5.0 9.0 0.00 0.00 0.00 36 1006.0
20260508233816 76 180 3.0 8.0 0.00 0.00 0.00 35 1006.0
20260508232703 76 203 3.0 9.0 0.00 0.00 0.00 35 1006.1
20260508232015 76 209 2.0 4.0 0.00 0.00 0.00 35 1006.1
20260508231113 76 190 1.0 4.0 0.00 0.00 0.00 34 1006.1
20260508230215 75 149 3.0 8.0 0.00 0.00 0.00 36 1006.1
20260508225617 75 147 6.0 10.0 0.00 0.00 0.00 35 1006.1
20260508224503 76 142 2.0 9.0 0.00 0.00 0.00 35 1006.1
20260508223816 76 96 2.0 6.0 0.00 0.00 0.00 35 1006.1
20260508222704 76 336 3.0 9.0 0.00 0.00 0.00 35 1006.2
20260508221803 76 356 5.0 15.0 0.00 0.00 0.00 34 1006.3
20260508220903 77 317 4.0 8.0 0.00 0.00 0.00 35 1006.3
20260508220004 76 348 3.0 7.0 0.00 0.00 0.00 35 1006.4
20260508215403 76 267 2.0 9.0 0.00 0.00 0.00 38 1006.6
20260508214503 75 282 3.0 8.0 0.00 0.00 0.00 39 1006.7
20260508213817 75 271 4.0 9.0 0.00 0.00 0.00 37 1006.8
20260508212914 75 315 5.0 9.0 0.00 0.00 0.00 37 1006.9
20260508212017 75 104 2.0 7.0 0.00 0.00 0.00 40 1006.9
20260508210903 73 93 2.0 7.0 0.00 0.00 0.00 45 1007.0
20260508210003 73 34 3.0 6.0 0.00 0.00 0.00 46 1007.0
20260508205403 73 100 4.0 9.0 0.00 0.00 0.00 45 1007.0
20260508204503 72 141 5.0 10.0 0.00 0.00 0.00 49 1006.9
20260508203813 72 119 4.0 9.0 0.00 0.00 0.00 52 1006.9
20260508202703 71 105 5.0 8.0 0.00 0.00 0.00 49 1007.1
20260508202017 71 116 6.0 11.0 0.00 0.00 0.00 51 1007.0
20260508201115 71 112 8.0 13.0 0.00 0.00 0.00 53 1007.1
20260508200003 70 100 10.0 14.0 0.00 0.00 0.00 52 1007.1
20260508195614 70 95 10.0 14.0 0.00 0.00 0.00 52 1007.0
20260508194503 68 98 10.0 14.0 0.00 0.00 0.00 53 1007.1
20260508193603 68 99 10.0 15.0 0.00 0.00 0.00 53 1007.2
20260508192703 68 98 9.0 13.0 0.00 0.00 0.00 55 1007.1
20260508191803 67 101 11.0 16.0 0.00 0.00 0.00 54 1007.3
20260508191115 67 96 10.0 16.0 0.00 0.00 0.00 54 1006.9
20260508190213 65 101 9.0 13.0 0.00 0.00 0.00 55 1007.5
20260508185614 65 96 9.0 13.0 0.00 0.00 0.00 55 1007.3
20260508184504 66 62 7.0 11.0 0.00 0.00 0.00 56 1007.8
20260508183603 66 41 8.0 12.0 0.00 0.00 0.00 53 1007.9
20260508182703 66 37 9.0 13.0 0.00 0.00 0.00 52 1008.0
20260508181803 67 48 10.0 13.0 0.00 0.00 0.00 52 1007.7
20260508181116 67 39 10.0 14.0 0.00 0.00 0.00 52 1008.0
20260508180004 66 360 12.0 15.0 0.00 0.00 0.00 58 1008.0
20260508175403 65 359 12.0 15.0 0.00 0.00 0.00 59 1008.1
20260508174504 66 3 11.0 13.0 0.00 0.00 0.00 56 1007.9
20260508173603 66 3 8.0 12.0 0.00 0.00 0.00 56 1007.8
20260508172703 66 21 9.0 12.0 0.00 0.00 0.00 56 1007.7
20260508171803 67 29 10.0 14.0 0.00 0.00 0.00 54 1007.4
20260508171117 67 46 9.0 14.0 0.00 0.00 0.00 56 1007.3
20260508170214 66 56 8.0 12.0 0.00 0.00 0.00 58 1007.5
20260508165615 66 21 9.0 13.0 0.00 0.00 0.00 57 1007.6
20260508164503 65 39 8.0 11.0 0.00 0.00 0.00 58 1007.6
20260508163603 65 358 9.0 13.0 0.00 0.00 0.00 59 1007.7
20260508162703 65 20 11.0 15.0 0.00 0.00 0.00 58 1007.7
20260508162015 66 47 11.0 15.0 0.00 0.00 0.00 57 1007.4
20260508161117 65 24 14.0 18.0 0.00 0.00 0.00 58 1007.1
20260508160215 65 3 12.0 16.0 0.00 0.00 0.00 59 1007.4
20260508155616 65 331 12.0 17.0 0.00 0.00 0.00 57 1007.5
20260508154504 65 304 5.0 12.0 0.00 0.00 0.00 56 1007.3
20260508153816 64 326 12.0 17.0 0.00 0.00 0.00 57 1006.9
20260508152913 64 326 11.0 17.0 0.00 0.00 0.00 55 1006.3
20260508151803 64 303 2.0 8.0 0.00 0.00 0.00 56 1006.8
20260508151113 64 295 2.0 8.0 0.00 0.00 0.00 56 1006.7
20260508150004 64 238 4.0 9.0 0.00 0.00 0.00 56 1006.9
20260508145403 64 273 6.0 11.0 0.00 0.00 0.00 58 1007.2
20260508144714 64 254 5.0 11.0 0.00 0.00 0.00 59 1006.9
20260508143816 64 251 3.0 7.0 0.00 0.00 0.00 58 1006.8
20260508142703 63 247 4.0 9.0 0.00 0.00 0.00 57 1006.7
20260508141803 63 202 6.0 10.0 0.00 0.00 0.00 58 1007.3
20260508140903 63 178 2.0 6.0 0.00 0.00 0.00 59 1006.8
20260508140003 63 170 4.0 5.0 0.00 0.00 0.00 59 1007.2
20260508135617 63 168 3.0 5.0 0.00 0.00 0.00 59 1006.8
20260508134715 63 169 2.0 4.0 0.00 0.00 0.00 58 1006.4
20260508133603 62 168 3.0 6.0 0.00 0.00 0.00 57 1006.5
20260508132914 62 167 2.0 4.0 0.00 0.00 0.00 58 1006.2
20260508132017 62 167 3.0 5.0 0.00 0.00 0.00 58 1006.4
20260508131114 62 168 1.0 4.0 0.00 0.00 0.00 59 1006.3
20260508130003 61 168 2.0 4.0 0.00 0.00 0.00 59 1006.4
20260508125404 61 168 3.0 5.0 0.00 0.00 0.00 60 1006.3
20260508124503 60 168 4.0 6.0 0.00 0.00 0.00 60 1006.4
20260508123813 60 172 4.0 6.0 0.00 0.00 0.00 60 1006.3
20260508122703 60 257 1.0 2.0 0.00 0.00 0.00 58 1006.3
20260508121803 60 257 1.0 3.0 0.00 0.00 0.00 60 1006.3
20260508120903 60 257 2.0 3.0 0.00 0.00 0.00 57 1006.2
20260508120217 60 257 2.0 4.0 0.00 0.00 0.00 58 1006.2
20260508115403 60 258 1.0 3.0 0.00 0.00 0.00 56 1006.1
20260508114716 59 234 1.0 6.0 0.00 0.00 0.00 57 1006.1
20260508113603 60 181 4.0 7.0 0.00 0.00 0.00 56 1005.9
20260508112916 61 209 2.0 7.0 0.00 0.00 0.00 54 1005.8
20260508112013 62 329 1.0 3.0 0.00 0.00 0.00 54 1005.9
20260508111115 61 360 1.0 3.0 0.00 0.00 0.00 53 1006.1
20260508110213 60 352 2.0 5.0 0.00 0.00 0.00 56 1005.9
20260508105403 61 251 3.0 8.0 0.00 0.00 0.00 56 1005.8
20260508104717 61 225 3.0 8.0 0.00 0.00 0.00 55 1005.9
20260508103814 60 350 5.0 10.0 0.00 0.00 0.00 58 1005.7
20260508102916 61 37 3.0 8.0 0.00 0.00 0.00 56 1005.8
20260508101803 63 199 5.0 10.0 0.00 0.00 0.00 54 1005.8
20260508101116 63 175 9.0 14.0 0.00 0.00 0.00 52 1005.4
20260508100003 63 181 7.0 13.0 0.00 0.00 0.00 52 1005.6
20260508095403 62 179 8.0 14.0 0.00 0.00 0.00 53 1005.9
20260508094712 62 174 9.0 14.0 0.00 0.00 0.00 53 1005.6
20260508093815 62 175 8.0 12.0 0.00 0.00 0.00 54 1005.7
20260508092703 62 182 10.0 14.0 0.00 0.00 0.00 53 1005.8
20260508092014 62 175 11.0 18.0 0.00 0.00 0.00 55 1005.5
20260508090903 59 165 10.0 17.0 0.00 0.00 0.00 59 1005.5
20260508090214 60 161 9.0 14.0 0.00 0.00 0.00 58 1005.6
20260508085615 60 153 9.0 14.0 0.00 0.00 0.00 59 1005.6
20260508084503 60 139 8.0 11.0 0.00 0.00 0.00 60 1006.0
20260508083604 60 138 8.0 11.0 0.00 0.00 0.00 59 1005.9
20260508082703 60 130 9.0 13.0 0.00 0.00 0.00 58 1006.1
20260508081803 60 126 10.0 13.0 0.00 0.00 0.00 58 1005.9
20260508080903 60 133 8.0 11.0 0.00 0.00 0.00 57 1006.0
20260508080003 60 136 9.0 11.0 0.00 0.00 0.00 58 1006.1
20260508075616 59 134 9.0 11.0 0.00 0.00 0.00 58 1006.1
20260508074713 58 134 8.0 11.0 0.00 0.00 0.00 60 1006.2
20260508073603 58 132 8.0 10.0 0.00 0.00 0.00 59 1006.3
20260508072913 58 132 7.0 9.0 0.00 0.00 0.00 56 1006.5
20260508072016 60 140 5.0 8.0 0.00 0.00 0.00 55 1006.7
20260508071113 60 143 6.0 10.0 0.00 0.00 0.00 54 1006.8
20260508070215 62 141 7.0 11.0 0.00 0.00 0.00 51 1006.7
20260508065403 63 145 9.0 13.0 0.00 0.00 0.00 50 1006.9
20260508064503 64 141 10.0 14.0 0.00 0.00 0.00 50 1007.1
20260508063603 64 138 9.0 12.0 0.00 0.00 0.00 50 1006.9
20260508062914 64 140 9.0 14.0 0.00 0.00 0.00 51 1007.1
20260508061804 64 137 9.0 12.0 0.00 0.00 0.00 52 1007.1
20260508061113 64 138 10.0 12.0 0.00 0.00 0.00 54 1007.2
20260508060003 63 134 11.0 15.0 0.00 0.00 0.00 56 1007.2
20260508055617 62 134 9.0 14.0 0.00 0.00 0.00 58 1007.2
20260508054503 63 130 11.0 14.0 0.00 0.00 0.00 57 1007.3
20260508053603 64 129 12.0 14.0 0.00 0.00 0.00 58 1007.4
20260508052914 64 133 11.0 13.0 0.00 0.00 0.00 58 1007.4
20260508051803 65 123 12.0 15.0 0.00 0.00 0.00 57 1007.5
20260508050903 65 132 13.0 16.0 0.00 0.00 0.00 56 1007.5
20260508050003 65 125 13.0 16.0 0.00 0.00 0.00 56 1007.7
20260508045403 66 123 13.0 15.0 0.00 0.00 0.00 55 1007.6